Tracking 35237 objects as of 5-Sep-2026
HD Live streaming from Space Station
objects crossing your sky now

COSMOS 1375 DEB

Track COSMOS 1375 DEB now!
10-day predictions


NORAD ID: 16203
Int'l Code: 1982-055E
Launch date: June 6, 1982
Source: Commonwealth of Independent States (former USSR) (CIS)
Launch site: PLESETSK MISSILE AND SPACE COMPLEX (PKMTR)

Note: This is SATELLITE DEBRIS
Your satellite tracking list
Your tracking list is empty




NASA's NSSDC Master Catalog

Two Line Element Set (TLE):
1 16203U 82055E   26248.47299941 -.00000066  00000-0  13967-4 0  9992
2 16203  65.8346  51.6540 0074991 307.6548  84.2913 13.89203075241866
Source of the keplerian elements: AFSPC